843  
AXUS43 KGID 191702  
MISGRI  
 
GID CWA HOURLY WEATHER ROUNDUP  
NATIONAL WEATHER SERVICE HASTINGS NE  
1200 PM CDT SUN APR 19 2015  
 
NOTE: "FAIR" INDICATES FEW OR NO CLOUDS BELOW 12,000 FEET WITH NO  
SIGNIFICANT WEATHER AND/OR OBSTRUCTIONS TO VISIBILITY.  
   
..SOUTH CENTRAL NEBRASKA
 
 
 
CITY SKY/WX TMP DP RH WIND PRES REMARKS  
GRAND ISLAND CLOUDY 50 35 56 N29G36 29.89R  
HASTINGS CLOUDY 50 37 61 N28G40 29.89R  
KEARNEY N/A N/A N/A N/A MISG N/A  
ORD CLOUDY 48 30 49 N26G41 29.90R  
YORK LGT RAIN 48 43 81 N16G24 29.83S  
AURORA CLOUDY 49 38 65 N32G44 29.86R  
LEXINGTON CLOUDY 47 33 57 N22G38 29.97R  
HOLDREGE LGT RAIN 43 34 71 N35G44 29.96R  
HEBRON CLOUDY 51 46 82 N17G26 29.82R  
   
..NEBRASKA PANHANDLE
 
 
 
CITY SKY/WX TMP DP RH WIND PRES REMARKS  
CHADRON MOSUNNY 47 25 42 NW20G35 30.09F  
ALLIANCE MOSUNNY 46 22 38 NW30G40 30.05F  
SCOTTSBLUFF PTSUNNY 48 24 39 N28G36 30.10F  
SIDNEY CLOUDY 43 25 49 N28G33 30.09R  
   
..WESTERN AND NORTH CENTRAL NEBRASKA
 
 
 
CITY SKY/WX TMP DP RH WIND PRES REMARKS  
VALENTINE MOSUNNY 50 28 42 NW26G46 29.97S  
AINSWORTH PTSUNNY 50 30 47 N30G38 29.95S  
ONEILL CLOUDY 49 32 52 NW30G38 29.91R  
BROKEN BOW CLOUDY 48 32 53 N33G44 29.93R  
IMPERIAL PTSUNNY 48 27 44 N30G37 30.03S  
NORTH PLATTE PTSUNNY 49 26 41 N30G43 29.99R  
MCCOOK CLOUDY 50 32 50 N26G33 29.99R  
   
..EASTERN NEBRASKA
 
 
 
CITY SKY/WX TMP DP RH WIND PRES REMARKS  
NORFOLK NOT AVBL  
SO SIOUX CITY CLOUDY 50 45 83 NW28G35 29.76R  
TEKAMAH RAIN 52 50 93 NW20 29.76R FOG  
COLUMBUS CLOUDY 48 37 66 N23G31 29.84R  
ALBION CLOUDY 49 33 52 N25G38 29.84R  
OMAHA EPPLEY LGT RAIN 53 50 89 N17G24 29.74R  
MILLARD DRIZZLE 53 49 89 NW13G22 29.74R  
LINCOLN LGT RAIN 52 48 86 N20G30 29.78S FOG  
NEBRASKA CITY CLOUDY 53 53 100 N18G26 29.72S  
BEATRICE CLOUDY 54 49 82 N24G30 29.77R  
FALLS CITY CLOUDY 57 52 83 NW22G31 29.70S  
   
..NORTHERN KANSAS
 
 
 
CITY SKY/WX TMP DP RH WIND PRES REMARKS  
GOODLAND MOSUNNY 50 35 56 N30G38 30.04R  
HILL CITY LGT RAIN 45 40 82 N25G43 29.98R  
NORTON PTSUNNY 48 37 66 N13G25 29.96S  
PHILLIPSBURG DRIZZLE 46 41 81 N33G40 29.96R  
SMITH CENTER LGT RAIN 45 39 81 N30G41 29.92R  
BELOIT CLOUDY 50 48 93 N20G28 29.84R  
HAYS CLOUDY 46 37 71 N37G46 29.92R  
RUSSELL CLOUDY 50 48 93 N23G30 29.87R  
CONCORDIA CLOUDY 51 48 89 N15G25 29.82R  
SALINA CLOUDY 60 51 72 N17 29.79R  
TOPEKA CLOUDY 64 53 67 W8 29.72F  
 
CLICK HERE TO GO TO PREVIOUS BULLETINS.

The Nexlab NE Page
The Nexlab KS Page Main Text Page